Regional Weather Roundup
Issued by NWS

Home | Current Version | Previous Version | Graphics & Text | Print | Product List | Glossary On
Versions: 1 2 3 4 5 6 7 8 9 10 11 12 13 14 15 16 17 18 19 20 21 22 23 24 25 26 27 28 29 30 31 32 33 34 35 36 37 38 39 40 41 42 43 44 45 46 47 48 49 50
000
ASUS43 KMPX 200101
RWRMN
WEATHER ROUNDUP FOR MINNESOTA
NATIONAL WEATHER SERVICE TWIN CITIES/CHANHASSEN MN
800 PM CDT THU OCT 19 2017


NOTE: "FAIR" INDICATES FEW OR NO CLOUDS BELOW 12,000 FEET WITH NO
SIGNIFICANT WEATHER AND/OR OBSTRUCTIONS TO VISIBILITY. N/A MEANS
CURRENT SKY AND/OR WEATHER CONDITIONS ARE NOT AVAILABLE.

MNZ060>063-068>070-200200-
   Twin Cities Metro

CITY           SKY/WX    TMP DP  RH WIND       PRES   REMARKS
TWIN CITIES    PTCLDY    64  39  39 S10       29.94F
ST PAUL        CLEAR     60  39  45 SE9       29.95F
CRYSTAL        CLEAR     63  36  36 S12       29.92F
BLAINE         PTCLDY    64  37  36 S12       29.93F
LAKEVILLE      CLEAR     61  37  41 S7        29.95F
EDEN PRAIRIE   CLEAR     62  39  42 S10       29.92F
SOUTH ST PAUL  CLEAR     63  35  35 S7        29.95F
LAKE ELMO      FAIR      61  37  41 S8        29.97S
$$
MNZ001>005-007-008-013>017-022>024-027-028-200200-
   Northwest Minnesota

CITY           SKY/WX    TMP DP  RH WIND       PRES   REMARKS
BEMIDJI        CLEAR     57  38  48 S7        29.81F
HALLOCK        CLEAR     57  36  44 S9        29.70S
ROSEAU         CLEAR     54  39  58 S6        29.73S
WARROAD        CLEAR     57  41  54 S5        29.74F
CROOKSTON      CLEAR     61  39  44 S13       29.74F
FOSSTON        CLEAR     59  37  44 SE8       29.78F
DETROIT LAKES  CLEAR     61  43  51 SE7       29.82F
MOORHEAD       CLEAR     61  43  51 S7        29.79R
PARK RAPIDS    CLOUDY    58  40  51 SE9       29.83F
MAHNOMEN       FAIR      59  41  51 S8        29.78F
$$
MNZ006-009>011-018-025>026-200200-
   North Central Minnesota

CITY           SKY/WX    TMP DP  RH WIND       PRES   REMARKS
BAUDETTE       CLEAR     57  39  51 S8        29.76F
FLAG ISLAND    CLEAR     52  46  82 S7        29.72F
INTL FALLS     CLEAR     57  35  43 VRB5      29.80S
WASKISH        CLEAR     61  39  44 S3        29.80S
BIG FORK       CLEAR     57  36  44 S5        29.84S
LONGVILLE      CLEAR     57  37  47 SE7       29.85F
GRAND RAPIDS   CLEAR     59  36  42 S8        29.89R
CRANE LAKE     CLEAR     45  37  76 CALM      29.86S
ORR            CLEAR     55  30  38 SE5       29.83S
COOK           CLEAR     57  34  41 CALM      29.87S
WALKER         FAIR      62  37  38 S8        29.83F
$$
MNZ012-019>021-037-200200-
   Northeast Minnesota

CITY           SKY/WX    TMP DP  RH WIND       PRES   REMARKS
DULUTH         CLEAR     58  36  43 S10       29.91S
ELY            CLEAR     57  30  35 S6        29.89S
HIBBING        CLEAR     48  33  56 SE3       29.88S
EVELETH        CLEAR     46  33  59 CALM      29.91R
DULUTH HARBOR  CLEAR     63  39  42 S5        29.91S
TWO HARBORS    CLEAR     57  39  51 SW3       29.89S
SILVER BAY     CLEAR     46  36  66 CALM      29.90S
GRAND MARAIS     N/A     45  38  76 CALM      29.92S
G MARAIS ARPRT CLOUDY    48  27  43 S3        29.94S
$$
MNZ029>031-032-039>041-046>048-054>057-064-200200-
   West Central Minnesota

CITY           SKY/WX    TMP DP  RH WIND       PRES   REMARKS
FERGUS FALLS   CLEAR     61  46  59 SE8       29.82R
WHEATON        CLEAR     66  45  45 S10       29.82S
MORRIS         CLEAR     61  46  59 S10       29.83R
ALEXANDRIA     CLEAR     63  44  50 S13       29.86S
ELBOW LAKE     FAIR      57  46  66 E9        29.83S
WADENA         CLEAR     57  41  54 SE6       29.84F
GLENWOOD       CLEAR     59  45  58 S6        29.88R
APPLETON       CLEAR     66  45  45 S8        29.83S
BENSON         CLEAR     64  45  48 S6        29.87R
ORTONVILLE     CLEAR     64  46  52 N7        29.82S
MADISON        CLEAR     64  48  55 S10       29.84S
WILLMAR        FAIR      59  45  58 SE9       29.88F
$$
MNZ033>034-036-042>043-049>051-058-059-200200-
   Central Minnesota

CITY           SKY/WX    TMP DP  RH WIND       PRES   REMARKS
ST CLOUD       CLEAR     57  40  52 SE9       29.90S
SAUK CENTRE    FAIR      57  42  57 SE5       29.88R
PAYNESVILLE    CLEAR     63  42  47 S13       29.89S
AITKIN         CLEAR     52  36  54 SE3       29.88S
PINE RIVER     CLOUDY    55  37  50 S6        29.90S
BRAINERD       CLOUDY    58  38  47 S7        29.88S
STAPLES        CLOUDY    59  37  44 SE5       29.86S
LONG PRAIRIE   FAIR      55  41  58 SE8       29.88R
LITTLE FALLS   CLEAR     59  30  33 SE6       29.88F
LITCHFIELD     CLEAR     64  45  48 SE5       29.90S
BUFFALO        CLEAR     62  37  39 SE6       29.93R
MAPLE LAKE     CLEAR     60  42  51 SE5       29.92S
HUTCHINSON     CLEAR     60  44  56 S3        29.92S
$$
MNZ037-044-045-052-053-200200-
   East Central Minnesota

CITY           SKY/WX    TMP DP  RH WIND       PRES   REMARKS
PRINCETON      CLEAR     61  37  41 SE7       29.91S
MORA           CLEAR     57  34  41 CALM      29.93S
CAMBRIDGE      CLEAR     61  43  51 S5        29.92S
RUSH CITY      MOCLDY    59  36  42 S5        29.93S
MOOSE LAKE     CLEAR     57  36  44 CALM      29.89S
HINCKLEY       FAIR      59  36  41 S5        29.92F
CLOQUET        CLEAR     59  30  33 S5        29.91S
MCGREGOR       CLEAR     59  36  41 S5        29.90S
$$
MNZ071>073-080-081-089-090-097-098-200200-
   Southwest Minnesota

CITY           SKY/WX    TMP DP  RH WIND       PRES   REMARKS
MONTEVIDEO     CLEAR     64  46  52 S7        29.85R
GRANITE FALLS  CLEAR     64  47  55 SE9       29.87S
CANBY          CLEAR     67  48  49 S5        29.85R
MARSHALL       CLEAR     66  47  50 S17       29.86S
REDWOOD FALLS  CLEAR     62  44  51 S12       29.89R
OLIVIA         CLEAR     61  43  51 S9        29.88S
PIPESTONE      CLEAR     63  46  55 S9        29.90S
WORTHINGTON    CLEAR     63  48  58 S12       29.94S
JACKSON        CLEAR     63  45  51 S12       29.96S
TRACY          CLEAR     66  48  52 S15G22    29.89S
SLAYTON        CLEAR     58  47  66 S7        29.92S
$$
MNZ065>067-074>077-082>085-091>093-200200-
   South Central Minnesota

CITY           SKY/WX    TMP DP  RH WIND       PRES   REMARKS
MANKATO        CLEAR     63  41  44 S14       29.94F
NEW ULM        CLEAR     63  43  48 S14       29.92S
ST JAMES       CLEAR     63  45  51 SE12G17   29.94S
FAIRMONT       CLEAR     57  45  64 S12       29.96S
GLENCOE        CLEAR     63  41  44 S7        29.92S
FARIBAULT      CLEAR     61  37  41 S9        29.97F
OWATONNA       CLEAR     61  39  44 S12G17    29.97F
WASECA         CLEAR     57  37  47 SE7       29.98S
$$
MNZ078>079-086>088-094>096-200200-
   Southeast Minnesota

CITY           SKY/WX    TMP DP  RH WIND       PRES   REMARKS
ROCHESTER      CLEAR     59  37  44 S14       30.02R
RED WING       CLEAR     63  30  29 SE7       29.98S
STANTON        CLEAR     62  37  39 S10       29.95F
DODGE CENTER   CLEAR     57  36  44 S9        30.00S
WINONA         CLEAR     55  41  58 CALM      30.02S
AUSTIN         CLEAR     61  37  41 S8        30.01S
PRESTON        CLEAR     58  35  43 S12       30.03F
$$
ABBREVIATIONS USED IN REMARKS
   TC - TEMPERATURES IN CELSIUS
  WCI - WIND CHILL INDEX
   HX - HEAT INDEX
  VSB - VISIBILITY
$$



USA.gov is the U.S. government's official web portal to all federal, state and local government web resources and services.